Time,TemperatureF,DewpointF,PressureIn,WindDirection,WindDirectionDegrees,WindSpeedMPH,WindSpeedGustMPH,Humidity,HourlyPrecipIn,Conditions,Clouds,dailyrainin,SoftwareType,DateUTC
2013-05-15 00:02:00,52.5,44.1,29.98,SE,135,0.0,3.8,73,0.00,,,0.00,WUHU216HW,2013-05-15 07:02:00,
2013-05-15 00:07:00,52.5,44.1,29.98,SSE,158,2.4,6.7,73,0.00,,,0.00,WUHU216HW,2013-05-15 07:07:00,
2013-05-15 00:12:00,52.5,44.1,29.98,SSW,203,0.0,6.7,73,0.00,,,0.00,WUHU216HW,2013-05-15 07:12:00,
2013-05-15 00:18:00,52.5,44.1,29.98,West,270,0.0,8.9,73,0.00,,,0.00,WUHU216HW,2013-05-15 07:18:00,
2013-05-15 00:23:00,52.3,43.9,29.98,SE,135,0.8,8.9,73,0.00,,,0.00,WUHU216HW,2013-05-15 07:23:00,
2013-05-15 00:28:00,52.3,44.3,29.98,SSE,158,5.1,6.9,74,0.00,,,0.00,WUHU216HW,2013-05-15 07:28:00,
2013-05-15 00:33:00,52.3,44.3,29.98,SE,135,6.2,6.2,74,0.00,,,0.00,WUHU216HW,2013-05-15 07:33:00,
2013-05-15 00:38:00,52.3,44.3,29.98,South,180,11.6,11.6,74,0.00,,,0.00,WUHU216HW,2013-05-15 07:38:00,
2013-05-15 00:43:00,52.1,44.4,29.98,SE,135,3.3,11.6,75,0.00,,,0.00,WUHU216HW,2013-05-15 07:43:00,
2013-05-15 00:48:00,51.9,44.3,29.97,SW,225,7.6,7.6,75,0.00,,,0.00,WUHU216HW,2013-05-15 07:48:00,
2013-05-15 00:53:00,51.9,44.3,29.97,SSE,158,6.2,7.6,75,0.00,,,0.00,WUHU216HW,2013-05-15 07:53:00,
2013-05-15 00:58:00,51.9,44.3,29.97,South,180,6.4,7.6,75,0.00,,,0.00,WUHU216HW,2013-05-15 07:58:00,
2013-05-15 01:03:00,51.8,44.1,29.97,SSE,158,0.0,6.4,75,0.00,,,0.00,WUHU216HW,2013-05-15 08:03:00,
2013-05-15 01:08:00,51.8,44.4,29.98,SSE,158,6.0,6.4,76,0.00,,,0.00,WUHU216HW,2013-05-15 08:08:00,
2013-05-15 01:13:00,51.8,44.4,29.98,SE,135,3.3,6.0,76,0.00,,,0.00,WUHU216HW,2013-05-15 08:13:00,
2013-05-15 01:19:00,51.8,44.4,29.97,SW,225,6.2,6.2,76,0.00,,,0.00,WUHU216HW,2013-05-15 08:19:00,
2013-05-15 01:24:00,51.6,44.3,29.97,South,180,4.6,6.2,76,0.00,,,0.00,WUHU216HW,2013-05-15 08:24:00,
2013-05-15 01:29:00,51.6,44.6,29.97,ESE,113,6.0,6.0,77,0.00,,,0.00,WUHU216HW,2013-05-15 08:29:00,
2013-05-15 01:34:00,51.6,44.6,29.97,SE,135,4.9,6.0,77,0.00,,,0.00,WUHU216HW,2013-05-15 08:34:00,
2013-05-15 01:39:00,51.4,44.4,29.96,ESE,113,2.2,6.0,77,0.00,,,0.00,WUHU216HW,2013-05-15 08:39:00,
2013-05-15 01:44:00,51.4,44.4,29.96,South,180,4.9,5.1,77,0.00,,,0.00,WUHU216HW,2013-05-15 08:44:00,
2013-05-15 01:49:00,51.4,44.4,29.96,SE,135,4.9,6.2,77,0.00,,,0.00,WUHU216HW,2013-05-15 08:49:00,
2013-05-15 01:54:00,51.4,44.8,29.96,SSE,158,0.8,6.2,78,0.00,,,0.00,WUHU216HW,2013-05-15 08:54:00,
2013-05-15 01:59:00,51.2,44.6,29.96,SSW,203,5.3,5.3,78,0.00,,,0.00,WUHU216HW,2013-05-15 08:59:00,
2013-05-15 02:04:00,51.0,44.4,29.96,SSE,158,2.4,5.3,78,0.00,,,0.00,WUHU216HW,2013-05-15 09:04:00,
2013-05-15 02:10:00,51.0,44.4,29.96,South,180,5.1,5.1,78,0.00,,,0.00,WUHU216HW,2013-05-15 09:10:00,
2013-05-15 02:15:00,51.0,44.4,29.96,SSE,158,4.2,7.3,78,0.00,,,0.00,WUHU216HW,2013-05-15 09:15:00,
2013-05-15 02:20:00,50.9,44.2,29.96,SE,135,4.0,7.3,78,0.00,,,0.00,WUHU216HW,2013-05-15 09:20:00,
2013-05-15 02:25:00,50.9,44.2,29.96,ESE,113,5.5,5.5,78,0.00,,,0.00,WUHU216HW,2013-05-15 09:25:00,
2013-05-15 02:30:00,50.7,44.0,29.96,SE,135,6.2,6.2,78,0.00,,,0.00,WUHU216HW,2013-05-15 09:30:00,
2013-05-15 02:35:00,50.7,44.4,29.96,SSE,158,11.1,11.1,79,0.00,,,0.00,WUHU216HW,2013-05-15 09:35:00,
2013-05-15 02:40:00,50.7,44.4,29.96,SSE,158,5.8,11.1,79,0.00,,,0.00,WUHU216HW,2013-05-15 09:40:00,
2013-05-15 02:45:00,50.7,44.4,29.96,SSE,158,0.0,11.1,79,0.00,,,0.00,WUHU216HW,2013-05-15 09:45:00,
2013-05-15 02:50:00,50.7,44.4,29.96,South,180,3.5,4.9,79,0.00,,,0.00,WUHU216HW,2013-05-15 09:50:00,
2013-05-15 02:55:00,50.5,44.2,29.96,SSE,158,3.3,3.5,79,0.00,,,0.00,WUHU216HW,2013-05-15 09:55:00,
2013-05-15 03:00:00,50.5,44.2,29.96,South,180,4.4,5.3,79,0.00,,,0.00,WUHU216HW,2013-05-15 10:00:00,
2013-05-15 03:05:00,50.5,43.9,29.96,South,180,0.0,7.3,78,0.00,,,0.00,WUHU216HW,2013-05-15 10:05:00,
2013-05-15 03:10:00,50.5,44.2,29.97,SSW,203,5.3,9.8,79,0.00,,,0.00,WUHU216HW,2013-05-15 10:10:00,
2013-05-15 03:16:00,50.5,44.2,29.96,South,180,0.0,9.8,79,0.00,,,0.00,WUHU216HW,2013-05-15 10:16:00,
2013-05-15 03:21:00,50.5,44.2,29.96,SSE,158,0.0,5.5,79,0.00,,,0.00,WUHU216HW,2013-05-15 10:21:00,
2013-05-15 03:26:00,50.5,44.2,29.96,SSE,158,4.4,6.2,79,0.00,,,0.00,WUHU216HW,2013-05-15 10:26:00,
2013-05-15 03:31:00,50.3,44.0,29.96,ESE,113,7.3,7.3,79,0.00,,,0.00,WUHU216HW,2013-05-15 10:31:00,
2013-05-15 03:36:00,50.3,44.0,29.96,ESE,113,6.2,7.3,79,0.00,,,0.00,WUHU216HW,2013-05-15 10:36:00,
2013-05-15 03:41:00,50.3,44.0,29.96,SSE,158,0.0,7.3,79,0.00,,,0.00,WUHU216HW,2013-05-15 10:41:00,
2013-05-15 03:46:00,50.1,43.8,29.96,SE,135,0.0,4.4,79,0.00,,,0.00,WUHU216HW,2013-05-15 10:46:00,
2013-05-15 03:51:00,50.1,43.8,29.96,SE,135,8.2,8.2,79,0.00,,,0.00,WUHU216HW,2013-05-15 10:51:00,
2013-05-15 03:56:00,50.1,43.8,29.96,SSE,158,0.0,8.2,79,0.00,,,0.00,WUHU216HW,2013-05-15 10:56:00,
2013-05-15 04:01:00,50.1,43.8,29.96,South,180,5.8,5.8,79,0.00,,,0.00,WUHU216HW,2013-05-15 11:01:00,
2013-05-15 04:06:00,50.1,43.5,29.96,South,180,5.8,5.8,78,0.00,,,0.00,WUHU216HW,2013-05-15 11:06:00,
2013-05-15 04:11:00,50.1,43.5,29.97,WSW,248,2.6,5.8,78,0.00,,,0.00,WUHU216HW,2013-05-15 11:11:00,
2013-05-15 04:16:00,50.1,43.5,29.97,SE,135,2.9,3.1,78,0.00,,,0.00,WUHU216HW,2013-05-15 11:16:00,
2013-05-15 04:21:00,50.1,43.5,29.97,ESE,113,0.0,3.1,78,0.00,,,0.00,WUHU216HW,2013-05-15 11:21:00,
2013-05-15 04:27:00,50.0,43.3,29.97,South,180,3.5,10.0,78,0.00,,,0.00,WUHU216HW,2013-05-15 11:27:00,
2013-05-15 04:32:00,49.8,43.1,29.97,South,180,2.9,10.0,78,0.00,,,0.00,WUHU216HW,2013-05-15 11:32:00,
2013-05-15 04:37:00,49.8,43.1,29.97,SSE,158,0.2,7.1,78,0.00,,,0.00,WUHU216HW,2013-05-15 11:37:00,
2013-05-15 04:42:00,49.8,43.5,29.97,SSE,158,1.3,7.1,79,0.00,,,0.00,WUHU216HW,2013-05-15 11:42:00,
2013-05-15 04:47:00,49.8,43.5,29.97,South,180,0.0,5.5,79,0.00,,,0.00,WUHU216HW,2013-05-15 11:47:00,
2013-05-15 04:52:00,49.8,43.5,29.97,South,180,0.0,5.5,79,0.00,,,0.00,WUHU216HW,2013-05-15 11:52:00,
2013-05-15 04:57:00,49.8,43.5,29.97,SSW,203,0.0,2.2,79,0.00,,,0.00,WUHU216HW,2013-05-15 11:57:00,
2013-05-15 05:03:00,49.8,43.5,29.97,SW,225,1.3,1.3,79,0.00,,,0.00,WUHU216HW,2013-05-15 12:03:00,
2013-05-15 05:08:00,49.8,43.5,29.97,SSE,158,4.2,4.2,79,0.00,,,0.00,WUHU216HW,2013-05-15 12:08:00,
2013-05-15 05:13:00,49.8,43.5,29.98,SE,135,1.1,4.2,79,0.00,,,0.00,WUHU216HW,2013-05-15 12:13:00,
2013-05-15 05:18:00,49.8,43.5,29.98,SW,225,4.6,4.6,79,0.00,,,0.00,WUHU216HW,2013-05-15 12:18:00,
2013-05-15 05:23:00,49.8,43.5,29.97,South,180,0.0,4.6,79,0.00,,,0.00,WUHU216HW,2013-05-15 12:23:00,
2013-05-15 05:28:00,49.8,43.5,29.98,SSE,158,1.5,4.6,79,0.00,,,0.00,WUHU216HW,2013-05-15 12:28:00,
2013-05-15 05:33:00,49.8,43.5,29.97,SE,135,3.5,3.5,79,0.00,,,0.00,WUHU216HW,2013-05-15 12:33:00,
2013-05-15 05:38:00,49.8,43.5,29.97,SE,135,3.1,3.5,79,0.00,,,0.00,WUHU216HW,2013-05-15 12:38:00,
2013-05-15 05:43:00,49.8,43.8,29.97,SSE,158,5.8,5.8,80,0.00,,,0.00,WUHU216HW,2013-05-15 12:43:00,
2013-05-15 05:48:00,49.8,43.8,29.98,ESE,113,2.4,5.8,80,0.00,,,0.00,WUHU216HW,2013-05-15 12:48:00,
2013-05-15 05:53:00,49.8,43.8,29.98,SSE,158,5.8,5.8,80,0.00,,,0.00,WUHU216HW,2013-05-15 12:53:00,
2013-05-15 05:58:00,49.6,43.7,29.98,SE,135,0.0,5.8,80,0.00,,,0.00,WUHU216HW,2013-05-15 12:58:00,
2013-05-15 06:03:00,49.8,43.8,29.98,SSE,158,1.1,4.2,80,0.00,,,0.00,WUHU216HW,2013-05-15 13:03:00,
2013-05-15 06:08:00,49.8,43.8,29.98,SE,135,0.0,6.0,80,0.00,,,0.00,WUHU216HW,2013-05-15 13:08:00,
2013-05-15 06:14:00,49.8,43.8,29.98,SSE,158,0.8,6.0,80,0.00,,,0.00,WUHU216HW,2013-05-15 13:14:00,
2013-05-15 06:19:00,49.8,43.8,29.98,SE,135,5.1,6.0,80,0.00,,,0.00,WUHU216HW,2013-05-15 13:19:00,
2013-05-15 06:24:00,49.8,43.8,29.99,SSE,158,4.0,5.1,80,0.00,,,0.00,WUHU216HW,2013-05-15 13:24:00,
2013-05-15 06:29:00,49.8,43.8,29.99,South,180,4.9,4.9,80,0.00,,,0.00,WUHU216HW,2013-05-15 13:29:00,
2013-05-15 06:35:00,49.8,43.8,29.99,SW,225,1.3,4.9,80,0.00,,,0.00,WUHU216HW,2013-05-15 13:35:00,
2013-05-15 06:40:00,49.8,43.8,29.99,South,180,1.1,4.6,80,0.00,,,0.00,WUHU216HW,2013-05-15 13:40:00,
2013-05-15 06:45:00,49.8,43.8,30.00,SE,135,4.0,6.2,80,0.00,,,0.00,WUHU216HW,2013-05-15 13:45:00,
2013-05-15 06:50:00,49.8,43.8,29.99,South,180,5.5,6.2,80,0.00,,,0.00,WUHU216HW,2013-05-15 13:50:00,
2013-05-15 06:55:00,49.8,43.8,30.00,SE,135,3.3,5.5,80,0.00,,,0.00,WUHU216HW,2013-05-15 13:55:00,
2013-05-15 07:00:00,49.8,43.8,30.00,SSE,158,5.8,6.0,80,0.00,,,0.00,WUHU216HW,2013-05-15 14:00:00,
2013-05-15 07:05:00,50.1,44.2,30.00,SSE,158,2.0,9.1,80,0.00,,,0.00,WUHU216HW,2013-05-15 14:05:00,
2013-05-15 07:10:00,50.1,44.2,30.00,SE,135,4.6,9.1,80,0.00,,,0.00,WUHU216HW,2013-05-15 14:10:00,
2013-05-15 07:16:00,50.5,44.4,30.01,SE,135,6.9,6.9,80,0.00,,,0.00,WUHU216HW,2013-05-15 14:16:00,
2013-05-15 07:22:00,50.5,44.6,30.01,SE,135,2.4,6.9,80,0.00,,,0.00,WUHU216HW,2013-05-15 14:22:00,
2013-05-15 07:27:00,50.5,44.6,30.01,SSE,158,7.6,7.6,80,0.00,,,0.00,WUHU216HW,2013-05-15 14:27:00,
2013-05-15 07:32:00,50.7,44.9,30.01,South,180,1.7,7.6,80,0.00,,,0.00,WUHU216HW,2013-05-15 14:32:00,
2013-05-15 07:37:00,51.0,45.1,30.01,South,180,0.0,6.2,80,0.00,,,0.00,WUHU216HW,2013-05-15 14:37:00,
2013-05-15 07:43:00,51.2,44.9,30.01,SSW,203,4.4,6.2,79,0.00,,,0.00,WUHU216HW,2013-05-15 14:43:00,
2013-05-15 07:48:00,51.6,45.3,30.01,SSE,158,8.2,8.2,79,0.00,,,0.00,WUHU216HW,2013-05-15 14:48:00,
2013-05-15 07:53:00,51.6,45.3,30.01,SSE,158,5.3,8.2,79,0.00,,,0.00,WUHU216HW,2013-05-15 14:53:00,
2013-05-15 07:58:00,51.9,45.6,30.01,SSE,158,6.2,8.2,79,0.00,,,0.00,WUHU216HW,2013-05-15 14:58:00,
2013-05-15 08:04:00,52.1,45.5,30.01,SSW,203,8.9,8.9,78,0.00,,,0.00,WUHU216HW,2013-05-15 15:04:00,
2013-05-15 08:09:00,52.3,45.6,30.01,SE,135,3.3,8.9,78,0.00,,,0.00,WUHU216HW,2013-05-15 15:09:00,
2013-05-15 08:14:00,52.5,45.8,30.01,South,180,6.7,8.9,78,0.00,,,0.00,WUHU216HW,2013-05-15 15:14:00,
2013-05-15 08:19:00,52.8,45.8,30.01,SSE,158,4.0,8.0,77,0.00,,,0.00,WUHU216HW,2013-05-15 15:19:00,
2013-05-15 08:24:00,53.2,45.8,30.01,SSE,158,6.7,8.0,76,0.00,,,0.00,WUHU216HW,2013-05-15 15:24:00,
2013-05-15 08:29:00,53.4,46.0,30.01,South,180,5.1,8.0,76,0.00,,,0.00,WUHU216HW,2013-05-15 15:29:00,
2013-05-15 08:34:00,53.6,46.2,30.01,SSW,203,4.4,8.2,76,0.00,,,0.00,WUHU216HW,2013-05-15 15:34:00,
2013-05-15 08:39:00,53.9,46.5,30.01,WSW,248,5.3,8.2,76,0.00,,,0.00,WUHU216HW,2013-05-15 15:39:00,
2013-05-15 08:45:00,54.3,46.5,30.01,SE,135,5.3,5.3,75,0.00,,,0.00,WUHU216HW,2013-05-15 15:45:00,
2013-05-15 08:50:00,54.5,46.7,30.01,SSE,158,4.2,6.2,75,0.00,,,0.00,WUHU216HW,2013-05-15 15:50:00,
2013-05-15 08:55:00,54.6,46.5,30.01,West,270,7.1,8.2,74,0.00,,,0.00,WUHU216HW,2013-05-15 15:55:00,
2013-05-15 09:00:00,54.6,46.5,30.01,SW,225,8.2,8.2,74,0.00,,,0.00,WUHU216HW,2013-05-15 16:00:00,
2013-05-15 09:05:00,55.0,46.5,30.02,SSW,203,0.0,9.1,73,0.00,,,0.00,WUHU216HW,2013-05-15 16:05:00,
2013-05-15 09:10:00,55.0,46.5,30.02,South,180,0.0,9.1,73,0.00,,,0.00,WUHU216HW,2013-05-15 16:10:00,
2013-05-15 09:15:00,55.4,46.5,30.01,SW,225,7.6,7.6,72,0.00,,,0.00,WUHU216HW,2013-05-15 16:15:00,
2013-05-15 09:20:00,55.5,46.7,30.02,SSW,203,0.6,7.6,72,0.00,,,0.00,WUHU216HW,2013-05-15 16:20:00,
2013-05-15 09:25:00,55.7,47.2,30.02,SSW,203,5.3,7.6,73,0.00,,,0.00,WUHU216HW,2013-05-15 16:25:00,
2013-05-15 09:31:00,55.9,47.3,30.02,SE,135,7.3,7.3,73,0.00,,,0.00,WUHU216HW,2013-05-15 16:31:00,
2013-05-15 09:36:00,55.9,47.0,30.03,SSE,158,2.2,7.3,72,0.00,,,0.00,WUHU216HW,2013-05-15 16:36:00,
2013-05-15 09:41:00,56.1,46.8,30.03,SSW,203,0.0,8.2,71,0.00,,,0.00,WUHU216HW,2013-05-15 16:41:00,
2013-05-15 09:46:00,56.1,46.8,30.02,East,90,3.5,8.2,71,0.00,,,0.00,WUHU216HW,2013-05-15 16:46:00,
2013-05-15 09:51:00,56.4,46.8,30.02,SSW,203,3.8,7.3,70,0.00,,,0.00,WUHU216HW,2013-05-15 16:51:00,
2013-05-15 09:56:00,56.8,47.1,30.02,South,180,0.0,3.8,70,0.00,,,0.00,WUHU216HW,2013-05-15 16:56:00,
2013-05-15 10:02:00,57.0,46.9,30.02,West,270,3.5,6.7,69,0.00,,,0.00,WUHU216HW,2013-05-15 17:02:00,
2013-05-15 10:07:00,57.3,47.2,30.02,SW,225,3.8,6.7,69,0.00,,,0.00,WUHU216HW,2013-05-15 17:07:00,
2013-05-15 10:20:00,57.7,47.2,30.02,South,180,8.7,8.7,68,0.00,,,0.00,WUHU216HW,2013-05-15 17:20:00,
2013-05-15 10:25:00,58.6,47.6,30.03,SSE,158,6.4,12.5,67,0.00,,,0.00,WUHU216HW,2013-05-15 17:25:00,
2013-05-15 10:30:00,58.8,47.8,30.02,South,180,6.0,6.4,67,0.00,,,0.00,WUHU216HW,2013-05-15 17:30:00,
2013-05-15 10:35:00,59.1,47.8,30.02,SE,135,0.0,6.0,66,0.00,,,0.00,WUHU216HW,2013-05-15 17:35:00,
2013-05-15 10:40:00,59.5,48.1,30.02,SSW,203,8.7,8.7,66,0.00,,,0.00,WUHU216HW,2013-05-15 17:40:00,
2013-05-15 10:45:00,59.7,47.9,30.02,ESE,113,0.6,8.7,65,0.00,,,0.00,WUHU216HW,2013-05-15 17:45:00,
2013-05-15 10:51:00,59.7,47.9,30.02,SE,135,11.1,11.1,65,0.00,,,0.00,WUHU216HW,2013-05-15 17:51:00,
2013-05-15 10:56:00,59.9,48.1,30.02,SE,135,0.0,11.1,65,0.00,,,0.00,WUHU216HW,2013-05-15 17:56:00,
2013-05-15 11:01:00,60.4,49.0,30.02,WSW,248,6.0,6.0,66,0.00,,,0.00,WUHU216HW,2013-05-15 18:01:00,
2013-05-15 11:06:00,60.4,48.6,30.03,SE,135,5.3,6.0,65,0.00,,,0.00,WUHU216HW,2013-05-15 18:06:00,
2013-05-15 11:11:00,60.4,48.6,30.03,SE,135,7.8,7.8,65,0.00,,,0.00,WUHU216HW,2013-05-15 18:11:00,
2013-05-15 11:16:00,60.6,48.4,30.03,South,180,7.8,7.8,64,0.00,,,0.00,WUHU216HW,2013-05-15 18:16:00,
2013-05-15 11:22:00,60.6,48.8,30.03,WSW,248,8.9,8.9,65,0.00,,,0.00,WUHU216HW,2013-05-15 18:22:00,
2013-05-15 11:27:00,60.6,48.4,30.03,SSE,158,4.6,8.9,64,0.00,,,0.00,WUHU216HW,2013-05-15 18:27:00,
2013-05-15 11:33:00,60.9,48.7,30.03,SSW,203,2.4,10.7,64,0.00,,,0.00,WUHU216HW,2013-05-15 18:33:00,
2013-05-15 11:38:00,61.1,48.9,30.03,SSE,158,6.2,10.7,64,0.00,,,0.00,WUHU216HW,2013-05-15 18:38:00,
2013-05-15 11:43:00,61.5,49.2,30.03,SE,135,1.5,8.7,64,0.00,,,0.00,WUHU216HW,2013-05-15 18:43:00,
2013-05-15 11:48:00,61.7,48.9,30.03,WSW,248,3.5,7.6,63,0.00,,,0.00,WUHU216HW,2013-05-15 18:48:00,
2013-05-15 11:53:00,61.5,49.2,30.03,South,180,0.8,7.6,64,0.00,,,0.00,WUHU216HW,2013-05-15 18:53:00,
2013-05-15 11:58:00,61.8,49.5,30.03,ESE,113,5.1,5.1,64,0.00,,,0.00,WUHU216HW,2013-05-15 18:58:00,
2013-05-15 12:03:00,62.0,49.3,30.03,SW,225,9.8,9.8,63,0.00,,,0.00,WUHU216HW,2013-05-15 19:03:00,
2013-05-15 12:09:00,62.2,49.3,30.02,SW,225,5.8,9.8,63,0.00,,,0.00,WUHU216HW,2013-05-15 19:09:00,
2013-05-15 12:14:00,62.4,49.6,30.02,South,180,4.2,6.2,63,0.00,,,0.00,WUHU216HW,2013-05-15 19:14:00,
2013-05-15 12:19:00,62.7,49.5,30.02,SSE,158,6.0,7.1,62,0.00,,,0.00,WUHU216HW,2013-05-15 19:19:00,
2013-05-15 12:24:00,63.3,50.0,30.03,SSE,158,5.5,7.1,62,0.00,,,0.00,WUHU216HW,2013-05-15 19:24:00,
2013-05-15 12:29:00,63.3,50.0,30.03,SSE,158,5.5,11.6,62,0.00,,,0.00,WUHU216HW,2013-05-15 19:29:00,
2013-05-15 12:34:00,63.3,50.0,30.03,SSE,158,1.1,11.6,62,0.00,,,0.00,WUHU216HW,2013-05-15 19:34:00,
2013-05-15 12:39:00,63.1,49.7,30.03,South,180,10.7,10.7,62,0.00,,,0.00,WUHU216HW,2013-05-15 19:39:00,
2013-05-15 12:44:00,62.9,49.7,30.03,SE,135,4.9,10.7,62,0.00,,,0.00,WUHU216HW,2013-05-15 19:44:00,
2013-05-15 12:49:00,62.9,49.2,30.02,SE,135,8.5,8.5,61,0.00,,,0.00,WUHU216HW,2013-05-15 19:49:00,
2013-05-15 12:54:00,63.1,49.8,30.02,SE,135,6.2,8.5,62,0.00,,,0.00,WUHU216HW,2013-05-15 19:54:00,
2013-05-15 12:59:00,63.1,49.4,30.02,SSW,203,7.1,8.5,61,0.00,,,0.00,WUHU216HW,2013-05-15 19:59:00,
2013-05-15 13:04:00,63.3,50.0,30.03,South,180,4.4,7.1,62,0.00,,,0.00,WUHU216HW,2013-05-15 20:04:00,
2013-05-15 13:09:00,63.6,49.9,30.02,SSW,203,1.5,9.6,61,0.00,,,0.00,WUHU216HW,2013-05-15 20:09:00,
2013-05-15 13:14:00,64.0,50.2,30.02,SE,135,4.6,9.6,61,0.00,,,0.00,WUHU216HW,2013-05-15 20:14:00,
2013-05-15 13:19:00,64.0,50.2,30.03,SSW,203,5.3,5.3,61,0.00,,,0.00,WUHU216HW,2013-05-15 20:19:00,
2013-05-15 13:25:00,64.0,49.8,30.02,South,180,9.8,9.8,60,0.00,,,0.00,WUHU216HW,2013-05-15 20:25:00,
2013-05-15 13:30:00,64.0,49.8,30.02,WNW,293,4.2,9.8,60,0.00,,,0.00,WUHU216HW,2013-05-15 20:30:00,
2013-05-15 13:35:00,64.0,49.8,30.02,South,180,6.7,9.1,60,0.00,,,0.00,WUHU216HW,2013-05-15 20:35:00,
2013-05-15 13:40:00,64.0,49.8,30.02,SE,135,4.6,9.1,60,0.00,,,0.00,WUHU216HW,2013-05-15 20:40:00,
2013-05-15 13:46:00,64.2,49.5,30.02,West,270,3.8,8.0,59,0.00,,,0.00,WUHU216HW,2013-05-15 20:46:00,
2013-05-15 13:51:00,64.2,49.5,30.02,SE,135,8.0,8.0,59,0.00,,,0.00,WUHU216HW,2013-05-15 20:51:00,
2013-05-15 13:56:00,64.4,49.6,30.02,SSW,203,2.2,8.0,59,0.00,,,0.00,WUHU216HW,2013-05-15 20:56:00,
2013-05-15 14:02:00,64.2,49.0,30.02,SE,135,3.8,6.7,58,0.00,,,0.00,WUHU216HW,2013-05-15 21:02:00,
2013-05-15 14:07:00,64.5,49.3,30.02,SSW,203,9.1,9.1,58,0.00,,,0.00,WUHU216HW,2013-05-15 21:07:00,
2013-05-15 14:12:00,64.7,49.5,30.02,SSE,158,0.0,9.1,58,0.00,,,0.00,WUHU216HW,2013-05-15 21:12:00,
2013-05-15 14:17:00,64.2,48.5,30.02,SW,225,0.0,14.7,57,0.00,,,0.00,WUHU216HW,2013-05-15 21:17:00,
2013-05-15 14:22:00,64.0,48.8,30.02,SSW,203,11.4,14.7,58,0.00,,,0.00,WUHU216HW,2013-05-15 21:22:00,
2013-05-15 14:27:00,64.0,48.8,30.02,SSE,158,3.1,11.4,58,0.00,,,0.00,WUHU216HW,2013-05-15 21:27:00,
2013-05-15 14:32:00,64.2,49.0,30.02,SE,135,7.1,7.1,58,0.00,,,0.00,WUHU216HW,2013-05-15 21:32:00,
2013-05-15 14:37:00,64.4,49.2,30.02,South,180,0.0,7.1,58,0.00,,,0.00,WUHU216HW,2013-05-15 21:37:00,
2013-05-15 14:42:00,64.5,49.3,30.02,SSW,203,0.0,7.1,58,0.00,,,0.00,WUHU216HW,2013-05-15 21:42:00,
2013-05-15 14:48:00,64.7,49.5,30.02,SW,225,8.0,8.0,58,0.00,,,0.00,WUHU216HW,2013-05-15 21:48:00,
2013-05-15 14:53:00,64.9,49.7,30.02,SE,135,2.9,8.0,58,0.00,,,0.00,WUHU216HW,2013-05-15 21:53:00,
2013-05-15 14:58:00,64.9,49.7,30.03,ESE,113,6.0,8.0,58,0.00,,,0.00,WUHU216HW,2013-05-15 21:58:00,
2013-05-15 15:03:00,65.3,50.1,30.03,SSE,158,6.2,6.2,58,0.00,,,0.00,WUHU216HW,2013-05-15 22:03:00,
2013-05-15 15:08:00,65.1,49.4,30.03,SE,135,0.0,6.2,57,0.00,,,0.00,WUHU216HW,2013-05-15 22:08:00,
2013-05-15 15:13:00,64.9,49.7,30.03,WSW,248,2.9,5.5,58,0.00,,,0.00,WUHU216HW,2013-05-15 22:13:00,
2013-05-15 15:18:00,64.9,49.7,30.02,ESE,113,3.5,9.6,58,0.00,,,0.00,WUHU216HW,2013-05-15 22:18:00,
2013-05-15 15:23:00,64.9,49.7,30.02,WSW,248,4.4,9.6,58,0.00,,,0.00,WUHU216HW,2013-05-15 22:23:00,
2013-05-15 15:29:00,65.1,49.9,30.02,SE,135,5.5,5.5,58,0.00,,,0.00,WUHU216HW,2013-05-15 22:29:00,
2013-05-15 15:34:00,65.1,49.9,30.01,South,180,5.8,10.0,58,0.00,,,0.00,WUHU216HW,2013-05-15 22:34:00,
2013-05-15 15:39:00,65.3,50.1,30.01,South,180,3.3,10.0,58,0.00,,,0.00,WUHU216HW,2013-05-15 22:39:00,
2013-05-15 15:44:00,65.3,49.6,30.02,SE,135,7.3,7.3,57,0.00,,,0.00,WUHU216HW,2013-05-15 22:44:00,
2013-05-15 15:49:00,65.4,49.8,30.02,SW,225,4.9,7.3,57,0.00,,,0.00,WUHU216HW,2013-05-15 22:49:00,
2013-05-15 15:54:00,65.4,49.8,30.02,SSW,203,3.8,5.1,57,0.00,,,0.00,WUHU216HW,2013-05-15 22:54:00,
2013-05-15 16:00:00,65.8,50.1,30.01,SSE,158,5.1,5.1,57,0.00,,,0.00,WUHU216HW,2013-05-15 23:00:00,
2013-05-15 16:05:00,65.8,50.1,30.01,ESE,113,1.3,5.1,57,0.00,,,0.00,WUHU216HW,2013-05-15 23:05:00,
2013-05-15 16:10:00,65.8,50.1,30.01,South,180,8.0,8.0,57,0.00,,,0.00,WUHU216HW,2013-05-15 23:10:00,
2013-05-15 16:16:00,66.0,49.8,30.01,SW,225,0.6,8.0,56,0.00,,,0.00,WUHU216HW,2013-05-15 23:16:00,
2013-05-15 16:21:00,66.2,50.0,30.01,SW,225,7.1,8.0,56,0.00,,,0.00,WUHU216HW,2013-05-15 23:21:00,
2013-05-15 16:26:00,66.2,50.0,30.01,South,180,0.0,7.1,56,0.00,,,0.00,WUHU216HW,2013-05-15 23:26:00,
2013-05-15 16:31:00,66.0,49.8,30.01,SSE,158,3.3,4.6,56,0.00,,,0.00,WUHU216HW,2013-05-15 23:31:00,
2013-05-15 16:36:00,66.0,49.8,30.01,South,180,0.6,4.0,56,0.00,,,0.00,WUHU216HW,2013-05-15 23:36:00,
2013-05-15 16:42:00,66.0,50.3,30.01,SW,225,4.2,4.2,57,0.00,,,0.00,WUHU216HW,2013-05-15 23:42:00,
2013-05-15 16:47:00,66.2,50.0,30.01,SW,225,5.3,6.9,56,0.00,,,0.00,WUHU216HW,2013-05-15 23:47:00,
2013-05-15 16:52:00,66.2,50.5,30.01,SSE,158,4.2,6.9,57,0.00,,,0.00,WUHU216HW,2013-05-15 23:52:00,
2013-05-15 16:57:00,66.3,51.1,30.01,SSW,203,4.0,4.6,58,0.00,,,0.00,WUHU216HW,2013-05-15 23:57:00,
2013-05-15 17:02:00,66.3,51.1,30.00,SE,135,3.8,6.0,58,0.00,,,0.00,WUHU216HW,2013-05-16 00:02:00,
2013-05-15 17:07:00,66.5,51.3,30.00,South,180,3.8,6.0,58,0.00,,,0.00,WUHU216HW,2013-05-16 00:07:00,
2013-05-15 17:12:00,66.5,51.3,30.01,East,90,1.1,11.4,58,0.00,,,0.00,WUHU216HW,2013-05-16 00:12:00,
2013-05-15 17:17:00,66.5,51.3,30.00,SSE,158,4.0,11.4,58,0.00,,,0.00,WUHU216HW,2013-05-16 00:17:00,
2013-05-15 17:22:00,66.3,51.1,30.00,SSW,203,1.3,5.1,58,0.00,,,0.00,WUHU216HW,2013-05-16 00:22:00,
2013-05-15 17:28:00,66.3,51.1,30.00,South,180,1.3,4.4,58,0.00,,,0.00,WUHU216HW,2013-05-16 00:28:00,
2013-05-15 17:33:00,66.3,50.6,30.00,WSW,248,5.8,5.8,57,0.00,,,0.00,WUHU216HW,2013-05-16 00:33:00,
2013-05-15 17:38:00,66.0,50.3,30.00,SSW,203,0.8,5.8,57,0.00,,,0.00,WUHU216HW,2013-05-16 00:38:00,
2013-05-15 17:43:00,66.0,50.3,30.00,South,180,0.0,5.3,57,0.00,,,0.00,WUHU216HW,2013-05-16 00:43:00,
2013-05-15 17:48:00,65.8,50.1,30.01,SSW,203,0.0,5.3,57,0.00,,,0.00,WUHU216HW,2013-05-16 00:48:00,
2013-05-15 17:53:00,66.3,50.1,30.00,SW,225,0.0,0.0,56,0.00,,,0.00,WUHU216HW,2013-05-16 00:53:00,
2013-05-15 17:58:00,66.7,50.0,30.00,South,180,0.0,0.0,55,0.00,,,0.00,WUHU216HW,2013-05-16 00:58:00,
2013-05-15 18:03:00,67.2,50.0,30.00,WSW,248,0.0,0.0,54,0.00,,,0.00,WUHU216HW,2013-05-16 01:03:00,
2013-05-15 18:09:00,67.6,49.8,30.00,NNW,338,0.0,0.0,53,0.00,,,0.00,WUHU216HW,2013-05-16 01:09:00,
2013-05-15 18:14:00,67.8,49.5,30.00,WSW,248,5.5,5.5,52,0.00,,,0.00,WUHU216HW,2013-05-16 01:14:00,
2013-05-15 18:19:00,67.6,49.8,30.00,SSW,203,1.1,5.5,53,0.00,,,0.00,WUHU216HW,2013-05-16 01:19:00,
2013-05-15 18:24:00,67.8,49.5,30.00,North,0,0.0,1.1,52,0.00,,,0.00,WUHU216HW,2013-05-16 01:24:00,
2013-05-15 18:30:00,67.6,49.8,30.00,SW,225,0.0,1.1,53,0.00,,,0.00,WUHU216HW,2013-05-16 01:30:00,
2013-05-15 18:35:00,67.2,49.5,30.00,South,180,0.0,1.3,53,0.00,,,0.00,WUHU216HW,2013-05-16 01:35:00,
2013-05-15 18:40:00,66.9,49.7,30.00,SW,225,4.6,4.6,54,0.00,,,0.00,WUHU216HW,2013-05-16 01:40:00,
2013-05-15 18:45:00,66.5,49.3,30.00,WNW,293,0.0,4.6,54,0.00,,,0.00,WUHU216HW,2013-05-16 01:45:00,
2013-05-15 18:50:00,66.5,49.3,30.00,WSW,248,0.0,0.8,54,0.00,,,0.00,WUHU216HW,2013-05-16 01:50:00,
2013-05-15 18:55:00,66.3,49.3,29.99,SW,225,0.0,0.0,54,0.00,,,0.00,WUHU216HW,2013-05-16 01:55:00,
2013-05-15 19:00:00,66.3,49.2,29.99,SW,225,0.0,0.0,54,0.00,,,0.00,WUHU216HW,2013-05-16 02:00:00,
2013-05-15 19:05:00,66.2,49.0,29.99,NW,315,0.0,0.0,54,0.00,,,0.00,WUHU216HW,2013-05-16 02:05:00,
2013-05-15 19:10:00,66.0,48.8,29.99,WNW,293,0.0,0.0,54,0.00,,,0.00,WUHU216HW,2013-05-16 02:10:00,
2013-05-15 19:15:00,66.0,48.8,29.99,WNW,293,0.0,0.0,54,0.00,,,0.00,WUHU216HW,2013-05-16 02:15:00,
2013-05-15 19:21:00,66.0,48.8,29.98,WNW,293,0.0,0.0,54,0.00,,,0.00,WUHU216HW,2013-05-16 02:21:00,
2013-05-15 19:26:00,66.0,48.7,29.98,SW,225,1.1,1.1,54,0.00,,,0.00,WUHU216HW,2013-05-16 02:26:00,
2013-05-15 19:31:00,65.8,49.1,29.98,SW,225,3.3,3.3,55,0.00,,,0.00,WUHU216HW,2013-05-16 02:31:00,
2013-05-15 19:36:00,65.6,49.0,29.98,SSW,203,1.5,3.3,55,0.00,,,0.00,WUHU216HW,2013-05-16 02:36:00,
2013-05-15 19:41:00,65.3,49.1,29.99,SW,225,0.0,3.3,56,0.00,,,0.00,WUHU216HW,2013-05-16 02:41:00,
2013-05-15 19:46:00,64.7,49.0,29.99,SW,225,6.2,6.2,57,0.00,,,0.00,WUHU216HW,2013-05-16 02:46:00,
2013-05-15 19:51:00,64.0,48.8,29.99,SW,225,1.7,6.2,58,0.00,,,0.00,WUHU216HW,2013-05-16 02:51:00,
2013-05-15 19:56:00,63.6,49.0,29.99,SSW,203,0.0,1.7,59,0.00,,,0.00,WUHU216HW,2013-05-16 02:56:00,
2013-05-15 20:01:00,63.3,48.7,29.99,SE,135,0.0,3.3,59,0.00,,,0.00,WUHU216HW,2013-05-16 03:01:00,
2013-05-15 20:07:00,62.9,48.8,29.99,SSW,203,0.0,3.3,60,0.00,,,0.00,WUHU216HW,2013-05-16 03:07:00,
2013-05-15 20:12:00,62.7,49.1,29.99,West,270,0.0,0.0,61,0.00,,,0.00,WUHU216HW,2013-05-16 03:12:00,
2013-05-15 20:17:00,62.6,49.3,29.99,SSE,158,0.0,0.0,62,0.00,,,0.00,WUHU216HW,2013-05-16 03:17:00,
2013-05-15 20:22:00,62.2,49.0,30.00,SW,225,0.0,0.0,62,0.00,,,0.00,WUHU216HW,2013-05-16 03:22:00,
2013-05-15 20:27:00,62.0,49.3,30.00,SW,225,0.0,0.0,63,0.00,,,0.00,WUHU216HW,2013-05-16 03:27:00,
2013-05-15 20:32:00,62.0,49.3,30.00,SW,225,0.0,0.0,63,0.00,,,0.00,WUHU216HW,2013-05-16 03:32:00,
2013-05-15 20:37:00,61.8,49.1,30.00,SW,225,0.0,0.0,63,0.00,,,0.00,WUHU216HW,2013-05-16 03:37:00,
2013-05-15 20:42:00,61.8,49.1,30.00,SW,225,0.0,0.0,63,0.00,,,0.00,WUHU216HW,2013-05-16 03:42:00,
2013-05-15 20:48:00,61.7,48.5,30.00,WSW,248,0.0,0.0,62,0.00,,,0.00,WUHU216HW,2013-05-16 03:48:00,
2013-05-15 20:53:00,61.5,48.0,30.00,WSW,248,0.0,0.0,61,0.00,,,0.00,WUHU216HW,2013-05-16 03:53:00,
2013-05-15 20:58:00,61.8,48.7,30.00,WSW,248,0.0,0.0,62,0.00,,,0.00,WUHU216HW,2013-05-16 03:58:00,
2013-05-15 21:01:00,62.0,49.3,30.00,WSW,248,0.0,0.0,63,0.00,,,0.00,WUHU216HW,2013-05-16 04:01:00,
2013-05-15 21:02:00,62.0,49.3,30.00,WSW,248,0.0,0.0,63,0.00,,,0.00,WUHU216HW,2013-05-16 04:02:00,
2013-05-15 21:05:00,62.4,49.2,30.00,WSW,248,0.0,0.0,62,0.00,,,0.00,WUHU216HW,2013-05-16 04:05:00,
2013-05-15 21:10:00,62.7,49.1,30.00,WSW,248,0.0,0.0,61,0.00,,,0.00,WUHU216HW,2013-05-16 04:10:00,
2013-05-15 21:15:00,62.9,49.2,30.00,West,270,0.0,0.0,61,0.00,,,0.00,WUHU216HW,2013-05-16 04:15:00,
2013-05-15 21:20:00,62.9,49.2,30.00,West,270,0.0,0.0,61,0.00,,,0.00,WUHU216HW,2013-05-16 04:20:00,
2013-05-15 21:25:00,62.9,49.2,30.01,South,180,0.0,0.0,61,0.00,,,0.00,WUHU216HW,2013-05-16 04:25:00,
2013-05-15 21:31:00,63.1,49.4,30.01,SSW,203,0.0,0.0,61,0.00,,,0.00,WUHU216HW,2013-05-16 04:31:00,
2013-05-15 21:36:00,63.1,49.0,30.01,SSW,203,0.0,0.0,60,0.00,,,0.00,WUHU216HW,2013-05-16 04:36:00,
2013-05-15 21:41:00,62.4,47.9,30.01,NNW,338,0.0,0.0,59,0.00,,,0.00,WUHU216HW,2013-05-16 04:41:00,
2013-05-15 21:46:00,61.8,47.4,30.01,NW,315,0.0,0.0,59,0.00,,,0.00,WUHU216HW,2013-05-16 04:46:00,
2013-05-15 21:51:00,61.5,47.1,30.01,NW,315,0.0,0.0,59,0.00,,,0.00,WUHU216HW,2013-05-16 04:51:00,
2013-05-15 21:56:00,61.3,47.4,30.01,NW,315,0.0,0.0,60,0.00,,,0.00,WUHU216HW,2013-05-16 04:56:00,
2013-05-15 22:01:00,61.1,47.2,30.01,NW,315,0.0,0.0,60,0.00,,,0.00,WUHU216HW,2013-05-16 05:01:00,
2013-05-15 22:06:00,60.8,47.3,30.01,NW,315,0.0,0.0,61,0.00,,,0.00,WUHU216HW,2013-05-16 05:06:00,
2013-05-15 22:11:00,60.6,47.1,30.01,West,270,0.0,0.0,61,0.00,,,0.00,WUHU216HW,2013-05-16 05:11:00,
2013-05-15 22:16:00,60.6,47.5,30.01,SSW,203,0.0,0.0,62,0.00,,,0.00,WUHU216HW,2013-05-16 05:16:00,
2013-05-15 22:21:00,60.2,47.6,30.01,SE,135,2.0,2.0,63,0.00,,,0.00,WUHU216HW,2013-05-16 05:21:00,
2013-05-15 22:27:00,60.0,47.4,30.01,SE,135,0.0,2.0,63,0.00,,,0.00,WUHU216HW,2013-05-16 05:27:00,
2013-05-15 22:32:00,59.9,47.6,30.01,SSE,158,0.0,2.0,64,0.00,,,0.00,WUHU216HW,2013-05-16 05:32:00,
2013-05-15 22:37:00,59.5,47.7,30.00,SW,225,0.0,0.0,65,0.00,,,0.00,WUHU216HW,2013-05-16 05:37:00,
2013-05-15 22:42:00,59.3,47.5,30.01,SW,225,0.0,0.0,65,0.00,,,0.00,WUHU216HW,2013-05-16 05:42:00,
2013-05-15 22:47:00,58.8,47.0,30.01,SW,225,0.0,0.0,66,0.00,,,0.00,WUHU216HW,2013-05-16 05:47:00,
2013-05-15 22:52:00,58.8,47.4,30.01,WSW,248,0.0,0.0,66,0.00,,,0.00,WUHU216HW,2013-05-16 05:52:00,
2013-05-15 22:57:00,58.8,47.4,30.00,South,180,0.0,0.0,66,0.00,,,0.00,WUHU216HW,2013-05-16 05:57:00,
2013-05-15 23:02:00,58.8,47.4,30.00,WSW,248,0.0,2.9,66,0.00,,,0.00,WUHU216HW,2013-05-16 06:02:00,
2013-05-15 23:07:00,58.8,47.4,30.00,WNW,293,0.0,4.6,66,0.00,,,0.00,WUHU216HW,2013-05-16 06:07:00,
2013-05-15 23:13:00,58.6,47.2,30.01,South,180,0.0,4.6,66,0.00,,,0.00,WUHU216HW,2013-05-16 06:13:00,
2013-05-15 23:18:00,58.4,47.1,30.00,South,180,0.0,0.0,66,0.00,,,0.00,WUHU216HW,2013-05-16 06:18:00,
2013-05-15 23:23:00,58.2,46.9,30.00,NNW,338,0.0,0.0,66,0.00,,,0.00,WUHU216HW,2013-05-16 06:23:00,
2013-05-15 23:28:00,58.2,46.9,30.00,WNW,293,0.0,0.0,66,0.00,,,0.00,WUHU216HW,2013-05-16 06:28:00,
2013-05-15 23:33:00,58.1,47.1,30.00,WNW,293,0.0,0.0,67,0.00,,,0.00,WUHU216HW,2013-05-16 06:33:00,
2013-05-15 23:38:00,57.9,46.9,30.00,WNW,293,0.0,0.0,67,0.00,,,0.00,WUHU216HW,2013-05-16 06:38:00,
2013-05-15 23:43:00,57.9,46.9,29.99,WNW,293,0.0,0.0,67,0.00,,,0.00,WUHU216HW,2013-05-16 06:43:00,
2013-05-15 23:48:00,57.9,46.9,29.99,West,270,0.0,0.0,67,0.00,,,0.00,WUHU216HW,2013-05-16 06:48:00,
2013-05-15 23:53:00,57.9,46.9,29.99,West,270,0.0,0.0,67,0.00,,,0.00,WUHU216HW,2013-05-16 06:53:00,
2013-05-15 23:59:00,57.9,47.3,30.00,West,270,0.0,0.0,68,0.00,,,0.00,WUHU216HW,2013-05-16 06:59:00,